Regional Weather Roundup
Issued by NWS State College, PA

Home | Current Version | Previous Version | Text Only | Print | Product List | Glossary On
Versions: 1 2 3 4 5 6 7 8 9 10 11 12 13 14 15 16 17 18 19 20 21 22 23 24 25 26 27 28 29 30 31 32 33 34 35 36 37 38 39 40 41 42 43 44 45 46 47 48 49 50
000
ASUS41 KCTP 171403
RWRCTP

REGIONAL WEATHER ROUNDUP
NATIONAL WEATHER SERVICE STATE COLLEGE PA
1000 AM EDT THU AUG 17 2017

Note: "fair" indicates few or no clouds below 12,000 feet with no
significant weather and/or obstructions to visibility.

* = STATION THAT DOES NOT REPORT PRECIPITATION /E.G. RAIN...SNOW...ETC/
    THUNDER OR FOG.

PAZ002>004-007>009-013>016-020>023-029>032-171500-
WESTERN PENNSYLVANIA

CITY           SKY/WX    TMP DP  RH WIND       PRES   REMARKS
ERIE           MOSUNNY   78  60  53 S14       29.96F
MEADVILLE      SUNNY     75  64  68 CALM      30.01F
FRANKLIN*      SUNNY     72  61  68 S7        30.04F
NEW CASTLE     FAIR      76  66  71 VRB7      30.01F
BEAVER COUNTY  MOSUNNY   75  64  69 S6        30.02F
BUTLER*        SUNNY     77  66  69 S6        30.03S
PITTSBURGH INT MOSUNNY   76  68  76 VRB5      30.02S
PITTSBURGH     SUNNY     76  64  66 S9        30.02F
INDIANA*       SUNNY     77  66  69 S5        30.07S
LATROBE        SUNNY     79  68  69 CALM      30.04F
WASHINGTON CO* CLOUDY    77  68  73 S6        30.03S
$$

PAZ004>006-010>012-017>019-024>028-033>037-041-042-045-046-049>053-171500-
CENTRAL PENNSYLVANIA

CITY           SKY/WX    TMP DP  RH WIND       PRES   REMARKS
BRADFORD       MOSUNNY   70  61  73 SE7       30.08S
DUBOIS         SUNNY     71  59  65 SE5       30.06S
CLEARFIELD     SUNNY     69  61  75 N3        30.08F
JOHNSTOWN      SUNNY     74  64  71 SW3       30.10R
ALTOONA        SUNNY     71  65  81 CALM      30.09S
STATE COLLEGE  MOSUNNY   66  63  88 CALM      30.08F
WILLIAMSPORT   MOSUNNY   71  63  75 CALM      30.05F
SELINSGROVE    MOSUNNY   70  64  81 CALM      30.07S
FT INDIANTOWN  SUNNY     74  64  69 E6        30.07S
CAPITAL CITY   SUNNY     75  64  68 NE6       30.05F
HARRISBURG     PTSUNNY   76  66  71 CALM      30.04F
YORK           MOSUNNY   77  70  79 E5        30.05F
$$

PAZ038>040-043-044-047-048-054-055-060>062-067>071-171500-
EASTERN PENNSYLVANIA

CITY           SKY/WX    TMP DP  RH WIND       PRES   REMARKS
SCRANTON       SUNNY     73  59  61 CALM      30.08F
MOUNT POCONO   SUNNY     67  55  65 SE5       30.12S
ALLENTOWN      SUNNY     76  62  62 E5        30.08S
QUAKERTOWN*    SUNNY     75  61  60 E5        30.09S
READING        MOSUNNY   75  66  73 CALM      30.06S
LANCASTER      SUNNY     76  67  73 E5        30.06S
COATESVILLE    SUNNY     75  66  73 E7        30.09S
POTTSTOWN      MOSUNNY   74  63  68 E3        30.09S
BLUE BELL      SUNNY     73  63  68 E6        30.08S
DOYLESTOWN     SUNNY     74  62  66 VRB3      30.07S
WILLOW GROVE   NOT AVBL
NORTH PHILA    MOSUNNY   80  60  50 E8        30.08S
PHILADELPHIA   MOSUNNY   79  62  56 E7        30.06S
$$




USA.gov is the U.S. government's official web portal to all federal, state and local government web resources and services.